星链-37083(STARLINK-37083)

导读

STARLINK-37083(NORAD编号68227)是美国太空探索技术公司(SpaceX)Starlink星链星座中的一颗低轨通信卫星,属于Starlink V1.0卫星平台,于2024年12月8日发射入轨,截至2026年4月已在轨运行约490天。 该卫星运行在近地轨道,轨道倾角约43度,近地点约355公里、远地点约357公里,轨道周期约91.66分钟,每日绕地球飞行约15.7圈,主要为全球提供高速低延迟卫星互联网接入服务。

基本信息
目录编号:
68227
目录名称:
STARLINK-37083
国际标识:
2026-053W
轨道中心:
EARTH
卫星名称:
星链-37083
卫星全名:
星链-37083(STARLINK-37083)
卫星状态:
在轨 (已飞行178 天)
发射日期:
2026-03-17 UTC
国别 :
美国 (US)
星等 :
--
该卫星已列入 空间交会检测服务 Space Conjunction Data Service (SCDS) ,当前飞行风险评估等级: 无高风险
轨道信息
数据来源 国际轨道数据
星历时间: 2026-09-11T10:05:43+0800
10小时前
查看轨道信息
半长轴: 6843.668km
偏心率: 0.0002125
轨道倾角: 97.284°
近地点辐角 91.017°
升交点赤经 128.041°
平近点角 269.132°
近地点: 464.076km
远地点: 466.986km
周期: 93.906分钟
每日圈数: 15.334492
详细信息
固有亮度:
5
最大亮度:
2.5
卫星平台:
Starlink V1.0
覆盖范围:
全球
运营商:
太空探索技术公司
运营商所在国:
美国
制造商(研发单位):
太空探索技术公司
制造商所在国:
美国
使用方式:
暂无
卫星简介
Starlink 计划是 SpaceX 推出的全球卫星互联网项目,通过发射低轨道卫星,为全球尤其是偏远地区提供高速、低延迟的互联网服务。自 2019 年起,Starlink 已部署数千颗卫星,旨在缩小全球数字鸿沟,推动互联网普及。该项目还为军事、航空等行业提供通信支持,带来广泛经济效益。
2D轨道图
3D轨道图
轨道高度分析图
轨道倾角分析图
轨道综合分析图
查看轨道综合分析图
交会数据列表
事件ID 空间交会对象 最接近时刻(TCA) 交会距离 交会风险概率(CRP) 交会风险指数(CRI) 操作
CDM_260911-130104-869606-822723
2026-09-11T
13:01:21+0000
1.683 km
极远距离
4.639494E-6 低风险 0.48
CDM_260908-142606-027906-822722
2026-09-08T
14:26:21+0000
2.601 km
极远距离
1.619022E-6 低风险 0.39
CDM_260913-142604-864806-822721
2026-09-13T
14:26:59+0000
2.710 km
极远距离
1.531533E-6 低风险 0.39
与全量物体交会距离演化趋势
与全量物体交会风险概率演化趋势